www.pogodaiklimat.ru
ПОГОДА в Ниагара-Фолсе
Время
и дата
05:53 26.06
06:53 26.06
07:53 26.06
08:53 26.06
09:53 26.06
10:53 26.06
11:53 26.06
12:53 26.06
13:53 26.06
14:53 26.06
15:53 26.06
16:53 26.06
17:53 26.06
18:53 26.06
19:53 26.06
20:53 26.06
21:53 26.06
22:53 26.06
23:53 26.06
00:27 27.06
00:45 27.06
00:53 27.06
01:23 27.06
01:53 27.06
02:53 27.06
03:53 27.06
04:53 27.06
05:53 27.06
06:53 27.06
07:53 27.06
08:53 27.06
09:53 27.06
10:53 27.06
11:53 27.06
12:10 27.06
12:53 27.06
13:53 27.06
14:53 27.06
15:53 27.06
16:53 27.06
17:53 27.06
18:53 27.06
19:53 27.06
20:53 27.06
21:53 27.06
22:53 27.06
23:53 27.06
00:53 28.06
Ветер
(напр.,м/с)
Видим. Явления Облачность Т
(С)
Тd
(С)
f
(%)
Тe
(С)
Тes
(С)
Комфортность P
(гПа)
Po
(гПа)
Тmin
(С)
Tmax
(С)
R
(мм)
R24
(мм)
S
(см)
Ю 1 16 км ясно +22.8 +18.3 76 +28 +29 душно 1014.4 993.8
Ю 2 16 км ясно +24.4 +18.3 69 +29 +30 душно 1014.0 993.4 +22.2 +24.4
ЮЗ 2 16 км ясно +26.7 +17.8 58 +31 +33 душно 1013.9 993.1
ЮЗ 3 16 км 10/0 2250 м
[Ac]
+27.2 +17.8 56 +31 +32 душно 1013.7 993.1
Ю 3 16 км 10/0 2100 м
[Ac]
+26.1 +17.8 60 +30 +32 душно 1013.6 992.8
ЮЗ 2 16 км 5/0 2250 м
[Ac]
+27.2 +18.3 58 +32 +37 очень
душно
1013.5 992.8
ЮЗ 3 16 км 8/0 2400 м
[Ac]
+29.4 +17.8 50 +34 +37 очень
душно
1012.7 992.1
ЮЗ 4 16 км 8/2 930 м
[Ac]
+28.3 +18.3 55 +33 +35 очень
душно
1012.5 991.8 +24.4 +29.4
ЮЗ 3
{4}
16 км 5/2 1140 м
[Ac]
+27.8 +18.9 58 +33 +36 очень
душно
1011.8 991.1
ЮЗ 2 16 км 8/0 2250 м
[Ac]
+27.8 +19.4 60 +33 +38 очень
душно
1011.6 990.8
ЮЗ 4 16 км 8/0 2100 м
[Ac]
+28.3 +19.4 59 +34 +35 очень
душно
1011.1 990.4
ЮЗ 3
{4}
16 км 10/10 1800 м +27.8 +19.4 60 +33 +33 очень
душно
1010.8 990.1
ЮЗ 3 16 км 8/8 1800 м +27.8 +19.4 60 +33 +34 очень
душно
1010.5 989.8
ЮЗ 2 16 км ясно +27.8 +20.0 63 +34 +35 очень
душно
1010.2 989.4 +27.2 +29.4
Ю 3 16 км 10/0 2550 м
[Ac]
+24.4 +18.9 71 +29 +29 душно 1010.6 989.8
ЮЗ 3 16 км ясно +23.3 +18.9 76 +30 +30 очень
душно
1010.8 990.1
ЮЗ 2 16 км 8/0 2250 м
[Ac]
+23.3 +19.4 79 +30 +30 очень
душно
1010.9 990.1
ЮЗ 2 16 км 8/0 2100 м
[Ac]
+22.8 +19.4 81 +29 +29 очень
душно
1010.7 990.1
ЮЗ 2 14 км ясно +22.2 +20.0 87 +28 +28 душно 1011.0 990.4
СЗ 3
{4}
14 км 10/8 480 м
[Ac]
+22.2 +19.4 84 +28 +28 душно 991.1
СЗ 2 16 км 10/10 540 м +21.1 +15.6 71 +24 +24 комфорт 991.4
С 3 16 км 10/8 750 м
[Ac]
+21.1 +15.6 71 +24 +24 комфорт 1012.2 991.4 +21.1 +27.8
СЗ 2 16 км 10/5 900 м
[Ac]
+21.1 +15.0 68 +24 +24 комфорт 991.8
СЗ 1 16 км 10/2 1020 м
[Ac]
+20.6 +13.9 65 +23 +23 комфорт 1012.8 991.8
З 2 16 км 5/5 1950 м +19.4 +12.8 66 +21 +21 комфорт 1012.9 992.1
З 2 16 км 2/0 2100 м
[Ac]
+16.1 +12.2 78 +15 +15 1013.6 992.8
З 2 16 км ясно +15.0 +11.7 81 +14 +14 1014.3 993.1
З 2 16 км ясно +17.8 +11.7 67 +17 +17 1014.9 993.8
З 2 16 км ясно +19.4 +11.7 61 +20 +21 1015.4 994.4 +15.0 +21.1
СЗ 3 16 км ясно +20.0 +10.0 53 +21 +22 комфорт 1016.0 995.1
З 3
{4}
16 км ясно +21.1 +9.4 47 +22 +24 комфорт 1016.2 995.1
СЗ 3
{5}
16 км 2/2 1410 м +21.1 +10.6 51 +23 +25 комфорт 1016.3 995.4
З 4
{5}
16 км 5/5 1350 м +22.2 +9.4 44 +24 +25 комфорт 1016.6 995.4
З 4
{5}
16 км 8/8 1650 м +22.2 +9.4 44 +24 +24 комфорт 1016.8 995.7
СЗ 4 16 км 10/10 1470 м +21.1 +10.0 49 +23 +23 комфорт 995.7
СЗ 3 16 км 10/8 1650 м
[Ac]
+21.1 +9.4 47 +22 +23 комфорт 1016.8 995.7 +19.4 +23.3
СЗ 3 16 км 8/2 1800 м
[Ac]
+21.7 +8.9 44 +23 +26 комфорт 1016.7 995.4
СЗ 4
{4}
16 км 5/0 2100 м
[Ac]
+22.2 +9.4 44 +24 +26 комфорт 1016.9 995.7
СЗ 4
{5}
16 км 8/0 2250 м
[Ac]
+21.7 +8.9 44 +23 +24 комфорт 1017.5 996.1
СЗ 4 16 км 8/0 2250 м
[Ac]
+21.7 +8.3 42 +23 +24 комфорт 1017.9 996.4
СЗ 3 16 км ясно +20.6 +8.9 47 +22 +24 комфорт 1018.1 996.7
СЗ 3 16 км ясно +19.4 +8.3 49 +20 +20 1018.8 997.4 +19.4 +22.8
СЗ 2 16 км ясно +17.8 +8.9 56 +18 +18 1019.1 997.7
СЗ 2 16 км ясно +16.7 +9.4 62 +16 +16 1019.9 998.4
СЗ 2 16 км ясно +15.6 +9.4 67 +15 +15 1020.2 998.7
З 1 16 км ясно +13.9 +8.9 72 +13 +13 1020.4 998.7
З 2 16 км ясно +12.8 +8.9 77 +11 +11 1020.8 999.1
СЗ 2 16 км ясно +14.4 +9.4 72 +13 +13 1021.2 999.7 +12.8 +19.4
Местоположение метеостанции Niagara Falls International Airport: широта 43.1083 долгота -78.9382 высота над уровнем моря 179 м.
В архиве по умолчанию представлена погода в Ниагара-Фолсе за последние 1-2 суток. Обновление информации о фактической погоде в базе происходит ежечасно! Архивные данные за месяц целиком и за предыдущие месяцы Вы можете получить, выбрав интересующий диапазон дат из раскрывающегося списка и нажав кнопку "Ввод!".
Внимание! Архив погоды МЕТАР в базе сайта по станциям, не включенным в климатический монитор, хранится не более 60 дней. Нет смысла пытаться выбрать более раннюю дату.
*Определитесь, кто Вы:
Внимание! Время в таблицах - местное (без учета летнего времени). Для получения всемирного времени необходимо вычесть поправку, которая равна -5 ч.
Смотрите также архив погоды в соседних городах и на ближайших метеорологических станциях:
Партнеры нашего сайта:      
Пояснения к столбцам:
  • Ветер - указаны скорость ветра в м/с - средняя за 10 мин, порывы в срок и между сроками (в фигурных скобках) и направление, откуда дует ветер: С - северный,
  • СВ - северо-восточный, В - восточный, ЮВ - юго-восточный, Ю - южный, ЮЗ - юго-западный, З - западный, СЗ - северо-западный.
  • Видимость - горизонтальная дальность видимости в метрах или километрах. При видимости от 1 до 10 км при отсутствии осадков обычно наблюдается дымка, при ухудшении видимости до 1 км и менее - туман. В сухую погоду видимость может ухудшаться дымом, пылью или мглою.
  • Явления - указаны атмосферные явления, наблюдавшиеся в срок или в последний час перед сроком; фигурными скобками обозначены явления, наблюдавшиеся между сроками (за 1-3 часа до срока); квадратными скобками обозначены град или гололедные отложения с указанием их диаметра в мм.
  • Облачность - указаны через наклонную черту общая и нижняя облачность в баллах и высота нижней границы облаков в метрах; квадратными скобками обозначены формы облаков: Ci - перистые, Cs - перисто-слоистые, Cc - перисто-кучевые, Ac - высококучевые, As - высокослоистые, Sc - слоисто-кучевые, Ns - слоисто-дождевые, Cu - кучевые, Cb - кучево-дождевые. Подробнее классификацию облаков см. в Атласе облаков (PDF).
  • T - Температура воздуха - температура, измеренная на высоте 2 м над землей.
  • Td - Температура точки росы - температура, при понижении до которой содержащийся в воздухе водяной пар достигнет насыщения.
  • f - Относительная влажность воздуха - влажноcть воздуха, измеренная на высоте 2 м над землей.
  • Te - Эффективная температура - температура, которую ощущает одетый по сезону человек в тени. Характеристика душности погоды. При расчете учитывается влияние влажности воздуха и скорости ветра на теплоощущения человека.
  • Tes - Эффективная температура на солнце - температура, которую ощущает человек, с поправкой на солнечный нагрев. Характеристика знойности погоды. Зависит от высоты солнца над горизонтом, облачности и скорости ветра. Ночью, в пасмурную погоду, а также при ветре 12 м/с и более поправка равна нулю.
  • P - Атмосферное давление - приведенное к уровню моря атмосферное давление.
  • Po - Атмосферное давление - измеренное на уровне метеостанции атмосферное давление.
  • Tmin - Минимальная температура - минимум температуры воздуха на высоте 2 м над землей.
  • Tmax - Максимальная температура - максимум температуры воздуха на высоте 2 м над землей.
  • R - Количество осадков - Количество выпавших осадков за период времени, мм. При наведении курсора мыши на число - период времени, за который выпало указанное количество осадков.
  • R24 - Количество осадков - Количество выпавших осадков за 24 часа, мм.
  • S - Снежный покров - Высота снежного покрова, см. При наведении курсора мыши на число - состояние снежного покрова и степень покрытия местности в баллах.